Погода в Елошном

Россия / Курганская область     55°27′23″N   66°42′59″E
темп.,
°C
ветер,
м/с
пор.,
м/с
влажн.,
%
обл.,
%
осадки,
мм/ч
давл.,
гПа
погр.,
м
1 марта, пн
пн123:00−15всв5994100 0.5 1010321
02:00−17св4895100 0.1 1011280
05:00−19ссв479794 0.1 1012168
08:00−20ссв359890 0.0 1013117
11:00−18ссв349585 0.1 1014246
14:00−15с349099 0.0 1015383
17:00−15сз239599 0.1 101639
20:00−19ссз2398100 0.0 101720
2 марта, вт
вт223:00−21зсз1210093 0.1 101820
02:00−22зюз2210087 0.0 101720
05:00−21зюз229887 0.0 101720
08:00−20ююз239884 0.0 101625
11:00−16ююз359488 0.1 1015260
14:00−14ююз459387 0.0 1013310
17:00−15ю489487 0.0 1012261
20:00−18ю5109631 0.0 1011183
3 марта, ср
ср323:00−17ю5119746 0.0 1010242
02:00−17ю6139497 0.0 1008295
05:00−17ююз7139498 0.1 1007358
08:00−15ююз71393100 0.3 1005488
11:00−9ююз81391100 0.6 1005739
14:00−6ююз81391100 0.2 1004789
17:00−4ююз71394100 0.6 1003862
20:00−3ююз61394100 0.3 1002567
4 марта, чт
чт423:00−3юз61194100 0.4 1002542
02:00−3ююз51095100 0.1 1001419
05:00−3ююз4897100 0.3 1000334
08:00−2ю4997100 0.7 999438
11:00−1юз5896100 1.1 998562
14:00−1зюз6892100 0.4 998690
17:00−4зюз599297 0.4 999331
20:00−7зюз51094100 0.0 1001250
5 марта, пт
пт523:00−7з6139395 0.1 1004481
02:00−12зюз5109248 0.0 1005169
05:00−14юз5109124 0.0 1006154
08:00−11ююз81590100 0.0 1005505
11:00−7юз111791100 0.4 1003871
14:00−2юз121991100 0.6 10021138
17:000юз121986100 0.7 10011107
20:00−1зюз101884100 0.1 10031006